Terminal Aerodrome Forecast
Issued by NWS

Home | Current Version | Previous Version | Graphics & Text | Print | Product List | Glossary On
Versions: 1 2 3 4 5 6 7 8 9 10 11 12 13 14 15 16 17 18 19 20 21 22 23 24 25 26 27 28 29 30 31
000
FTUS43 KABR 302000 AAA
TAFMBG
TAF AMD
KMBG 302052Z 3021/0118 14023G35KT P6SM VCSH OVC060
     FM010300 25015KT P6SM BKN050
     FM011500 29014G20KT P6SM OVC050=

USA.gov is the U.S. government's official web portal to all federal, state and local government web resources and services.